• In Latvia
  • List of Countries
  • For 7 days
  • Water Temperature
  • Satellite Maps
  • Weather Map
  • Weather Widgets
  • user-avatar
    Login

    Hourly Weather Aizpute

    Today, 22 February, Thursday

    Time Temperature Precipitation Wind Pressure Humidity
    00:00 -10°C° 0 mm 2 mps 765 mmHg 87%
    01:00 -12°C° 0 mm 2 mps 765 mmHg 88%
    02:00 -12°C° 0 mm 2 mps 766 mmHg 89%
    03:00 -12°C° 0 mm 2 mps 766 mmHg 89%
    04:00 -13°C° 0 mm 2 mps 766 mmHg 90%
    05:00 -13°C° 0 mm 2 mps 766 mmHg 90%
    06:00 -13°C° 0 mm 2 mps 766 mmHg 90%
    07:00 -13°C° 0 mm 2 mps 766 mmHg 91%
    08:00 -12°C° 0 mm 2 mps 766 mmHg 85%
    09:00 -10°C° 0 mm 2 mps 766 mmHg 79%
    10:00 -9°C° 0 mm 2 mps 767 mmHg 72%
    11:00 -7°C° 0 mm 1 mps 766 mmHg 69%
    12:00 -6°C° 0 mm 1 mps 766 mmHg 65%
    13:00 -6°C° 0 mm 1 mps 766 mmHg 62%
    14:00 -6°C° 0 mm 1 mps 766 mmHg 64%
    15:00 -6°C° 0 mm 1 mps 766 mmHg 67%
    16:00 -6°C° 0 mm 1 mps 766 mmHg 70%
    17:00 -7°C° 0 mm 1 mps 766 mmHg 74%
    18:00 -8°C° 0 mm 1 mps 766 mmHg 78%
    19:00 -9°C° 0 mm 1 mps 766 mmHg 82%
    20:00 -9°C° 0 mm 1 mps 766 mmHg 84%
    21:00 -10°C° 0 mm 1 mps 766 mmHg 85%
    22:00 -10°C° 0 mm 1 mps 766 mmHg 87%
    23:00 -10°C° 0 mm 1 mps 766 mmHg 87%

    Tomorrow, 23 February, Friday

    Time Temperature Precipitation Wind Pressure Humidity
    00:00 -10°C° 0 mm 1 mps 765 mmHg 87%
    01:00 -10°C° 0 mm 1 mps 765 mmHg 88%
    02:00 -11°C° 0 mm 1 mps 765 mmHg 88%
    03:00 -11°C° 0 mm 1 mps 765 mmHg 88%
    04:00 -11°C° 0 mm 1 mps 765 mmHg 88%
    05:00 -13°C° 0 mm 2 mps 765 mmHg 87%
    06:00 -13°C° 0 mm 2 mps 764 mmHg 87%
    07:00 -13°C° 0 mm 2 mps 764 mmHg 86%
    08:00 -10°C° 0 mm 2 mps 764 mmHg 82%
    09:00 -10°C° 0 mm 3 mps 764 mmHg 77%
    10:00 -9°C° 0 mm 3 mps 764 mmHg 73%
    11:00 -8°C° 0 mm 3 mps 764 mmHg 72%
    12:00 -8°C° 0 mm 4 mps 764 mmHg 71%
    13:00 -7°C° 0 mm 4 mps 763 mmHg 70%
    14:00 -7°C° 0.4 mm 4 mps 763 mmHg 76%
    15:00 -8°C° 0.4 mm 5 mps 763 mmHg 81%
    16:00 -8°C° 0.4 mm 5 mps 762 mmHg 87%
    17:00 -8°C° 0.3 mm 5 mps 762 mmHg 84%
    18:00 -9°C° 0.3 mm 6 mps 762 mmHg 82%
    19:00 -10°C° 0.3 mm 6 mps 763 mmHg 79%
    20:00 -10°C° 0 mm 6 mps 763 mmHg 80%
    21:00 -11°C° 0 mm 6 mps 763 mmHg 81%
    22:00 -12°C° 0 mm 6 mps 764 mmHg 81%
    23:00 -12°C° 0 mm 6 mps 764 mmHg 82%

    Day after tomorrow, 24 February, Saturday

    Time Temperature Precipitation Wind Pressure Humidity
    00:00 -12°C° 0 mm 6 mps 764 mmHg 82%
    01:00 -14°C° 0 mm 6 mps 765 mmHg 83%
    02:00 -14°C° 0 mm 6 mps 765 mmHg 83%
    03:00 -14°C° 0 mm 6 mps 766 mmHg 82%
    04:00 -14°C° 0 mm 6 mps 766 mmHg 82%
    05:00 -14°C° 0 mm 6 mps 767 mmHg 82%
    06:00 -15°C° 0 mm 6 mps 767 mmHg 82%
    07:00 -15°C° 0 mm 6 mps 768 mmHg 82%
    08:00 -14°C° 0 mm 6 mps 768 mmHg 78%
    09:00 -14°C° 0 mm 6 mps 768 mmHg 75%
    10:00 -12°C° 0 mm 6 mps 769 mmHg 72%
    11:00 -12°C° 0 mm 6 mps 769 mmHg 70%
    12:00 -11°C° 0 mm 6 mps 769 mmHg 69%
    13:00 -11°C° 0 mm 5 mps 769 mmHg 68%
    14:00 -11°C° 0 mm 5 mps 769 mmHg 70%
    15:00 -12°C° 0 mm 5 mps 770 mmHg 72%
    16:00 -12°C° 0 mm 5 mps 770 mmHg 73%
    17:00 -12°C° 0 mm 4 mps 770 mmHg 78%
    18:00 -12°C° 0 mm 4 mps 770 mmHg 82%
    19:00 -13°C° 0 mm 3 mps 770 mmHg 86%
    20:00 -13°C° 0 mm 3 mps 770 mmHg 87%
    21:00 -13°C° 0 mm 3 mps 770 mmHg 88%
    22:00 -13°C° 0 mm 3 mps 770 mmHg 89%
    23:00 -13°C° 0 mm 3 mps 770 mmHg 90%

    25 February, Sunday

    Time Temperature Precipitation Wind Pressure Humidity
    00:00 -13°C° 0 mm 3 mps 770 mmHg 90%
    01:00 -13°C° 0 mm 3 mps 770 mmHg 91%
    02:00 -13°C° 0 mm 3 mps 770 mmHg 91%
    03:00 -14°C° 0 mm 3 mps 770 mmHg 92%
    04:00 -14°C° 0 mm 3 mps 770 mmHg 92%
    05:00 -14°C° 0 mm 3 mps 770 mmHg 92%
    06:00 -14°C° 0 mm 3 mps 770 mmHg 91%
    07:00 -15°C° 0 mm 3 mps 770 mmHg 91%
    08:00 -14°C° 0 mm 3 mps 770 mmHg 86%
    09:00 -13°C° 0 mm 3 mps 770 mmHg 80%
    10:00 -14°C° 0 mm 4 mps 770 mmHg 75%
    11:00 -12°C° 0 mm 4 mps 770 mmHg 73%
    12:00 -12°C° 0 mm 3 mps 770 mmHg 71%
    13:00 -10°C° 0 mm 3 mps 770 mmHg 70%
    14:00 -12°C° 0 mm 3 mps 770 mmHg 71%
    15:00 -12°C° 0 mm 3 mps 769 mmHg 72%
    16:00 -12°C° 0 mm 3 mps 769 mmHg 73%
    17:00 -13°C° 0 mm 3 mps 769 mmHg 77%
    18:00 -13°C° 0 mm 3 mps 769 mmHg 80%
    19:00 -14°C° 0 mm 3 mps 769 mmHg 84%
    20:00 -14°C° 0 mm 3 mps 769 mmHg 86%
    21:00 -14°C° 0 mm 3 mps 769 mmHg 87%
    22:00 -13°C° 0 mm 2 mps 769 mmHg 89%
    23:00 -13°C° 0 mm 2 mps 769 mmHg 89%

    26 February, Monday

    Time Temperature Precipitation Wind Pressure Humidity
    00:00 -13°C° 0 mm 2 mps 769 mmHg 90%
    01:00 -13°C° 0 mm 2 mps 769 mmHg 91%
    02:00 -13°C° 0 mm 2 mps 768 mmHg 91%
    03:00 -13°C° 0 mm 2 mps 768 mmHg 91%
    04:00 -13°C° 0 mm 2 mps 768 mmHg 91%
    05:00 -13°C° 0 mm 2 mps 767 mmHg 90%
    06:00 -12°C° 0 mm 2 mps 767 mmHg 89%
    07:00 -12°C° 0 mm 2 mps 767 mmHg 89%
    08:00 -10°C° 0.1 mm 2 mps 767 mmHg 85%
    09:00 -9°C° 0.1 mm 2 mps 766 mmHg 81%
    10:00 -9°C° 0.1 mm 3 mps 766 mmHg 77%
    11:00 -8°C° 0.1 mm 3 mps 766 mmHg 74%
    12:00 -8°C° 0.1 mm 3 mps 766 mmHg 71%
    13:00 -8°C° 0.1 mm 3 mps 765 mmHg 69%
    14:00 -8°C° 0 mm 3 mps 765 mmHg 70%
    15:00 -9°C° 0 mm 4 mps 765 mmHg 71%
    16:00 -10°C° 0 mm 4 mps 764 mmHg 72%
    17:00 -11°C° 0 mm 4 mps 764 mmHg 76%
    18:00 -11°C° 0 mm 4 mps 764 mmHg 80%
    19:00 -12°C° 0 mm 4 mps 764 mmHg 84%
    20:00 -14°C° 0 mm 4 mps 764 mmHg 85%
    21:00 -14°C° 0 mm 4 mps 764 mmHg 86%
    22:00 -15°C° 0 mm 4 mps 764 mmHg 86%
    23:00 -15°C° 0 mm 4 mps 763 mmHg 87%

    27 February, Tuesday

    Time Temperature Precipitation Wind Pressure Humidity
    00:00 -16°C° 0 mm 4 mps 763 mmHg 88%
    01:00 -15°C° 0 mm 3 mps 763 mmHg 89%
    02:00 -16°C° 0 mm 3 mps 763 mmHg 89%
    03:00 -16°C° 0 mm 3 mps 763 mmHg 90%
    04:00 -17°C° 0 mm 3 mps 762 mmHg 90%
    05:00 -17°C° 0 mm 3 mps 762 mmHg 89%
    06:00 -18°C° 0 mm 4 mps 762 mmHg 89%
    07:00 -18°C° 0 mm 4 mps 762 mmHg 88%
    08:00 -18°C° 0 mm 4 mps 762 mmHg 83%
    09:00 -17°C° 0 mm 4 mps 762 mmHg 78%
    10:00 -17°C° 0 mm 4 mps 763 mmHg 73%
    11:00 -17°C° 0 mm 4 mps 763 mmHg 71%
    12:00 -17°C° 0 mm 4 mps 762 mmHg 69%
    13:00 -16°C° 0 mm 4 mps 762 mmHg 67%
    14:00 -17°C° 0 mm 4 mps 762 mmHg 69%
    15:00 -17°C° 0 mm 4 mps 762 mmHg 70%
    16:00 -17°C° 0 mm 4 mps 762 mmHg 71%
    17:00 -18°C° 0 mm 4 mps 762 mmHg 76%
    18:00 -19°C° 0 mm 4 mps 762 mmHg 80%
    19:00 -19°C° 0 mm 4 mps 762 mmHg 84%
    20:00 -20°C° 0 mm 4 mps 762 mmHg 85%
    21:00 -20°C° 0 mm 4 mps 762 mmHg 85%
    22:00 -22°C° 0 mm 4 mps 762 mmHg 86%
    23:00 -22°C° 0 mm 4 mps 762 mmHg 87%
    Show more